When you browse on this site, cookies collect data to enhance your experience and personalize the content and advertising you see.
Visit our Privacy Policy to learn more. By continuing to use the site, you agree to this use of cookies and data.
  • In United Kingdom
  • List of Countries
  • For 7 days
  • Water Temperature
  • Satellite Maps
  • Weather Map
  • Weather Widgets
  • user-avatar
    Login

    Hourly Weather Pointe-Noire

    Today, 27 June, Thursday

    Time Temperature Precipitation Wind Pressure Humidity
    00:00 +22°C° 0 mm 1 mps 723 mmHg 98%
    01:00 +22°C° 0 mm 1 mps 722 mmHg 98%
    02:00 +22°C° 0 mm 1 mps 722 mmHg 98%
    03:00 +22°C° 0 mm 1 mps 722 mmHg 98%
    04:00 +22°C° 0 mm 1 mps 722 mmHg 98%
    05:00 +23°C° 0 mm 1 mps 722 mmHg 97%
    06:00 +23°C° 0 mm 1 mps 722 mmHg 97%
    07:00 +23°C° 0 mm 1 mps 723 mmHg 96%
    08:00 +24°C° 0 mm 1 mps 723 mmHg 92%
    09:00 +25°C° 0 mm 1 mps 723 mmHg 88%
    10:00 +26°C° 0 mm 1 mps 723 mmHg 84%
    11:00 +27°C° 0.2 mm 1 mps 723 mmHg 80%
    12:00 +28°C° 0.2 mm 1 mps 722 mmHg 76%
    13:00 +29°C° 0.2 mm 1 mps 722 mmHg 72%
    14:00 +29°C° 1.6 mm 1 mps 721 mmHg 78%
    15:00 +28°C° 1.6 mm 1 mps 720 mmHg 84%
    16:00 +27°C° 1.6 mm 2 mps 720 mmHg 90%
    17:00 +26°C° 1.7 mm 2 mps 720 mmHg 92%
    18:00 +25°C° 1.7 mm 2 mps 720 mmHg 94%
    19:00 +24°C° 1.7 mm 2 mps 721 mmHg 96%
    20:00 +23°C° 0.3 mm 2 mps 721 mmHg 97%
    21:00 +23°C° 0.3 mm 2 mps 722 mmHg 98%
    22:00 +23°C° 0.3 mm 2 mps 722 mmHg 99%
    23:00 +23°C° 0.1 mm 2 mps 722 mmHg 98%

    Tomorrow, 28 June, Friday

    Time Temperature Precipitation Wind Pressure Humidity
    00:00 +23°C° 0.1 mm 2 mps 722 mmHg 98%
    01:00 +23°C° 0.1 mm 2 mps 722 mmHg 98%
    02:00 +22°C° 0 mm 1 mps 722 mmHg 98%
    03:00 +22°C° 0 mm 1 mps 722 mmHg 99%
    04:00 +22°C° 0 mm 1 mps 721 mmHg 99%
    05:00 +22°C° 0 mm 1 mps 722 mmHg 98%
    06:00 +22°C° 0 mm 1 mps 722 mmHg 98%
    07:00 +23°C° 0 mm 1 mps 722 mmHg 97%
    08:00 +23°C° 0 mm 1 mps 722 mmHg 95%
    09:00 +24°C° 0 mm 1 mps 723 mmHg 92%
    10:00 +25°C° 0 mm 1 mps 723 mmHg 89%
    11:00 +26°C° 0.2 mm 1 mps 723 mmHg 83%
    12:00 +28°C° 0.2 mm 1 mps 722 mmHg 76%
    13:00 +29°C° 0.2 mm 1 mps 722 mmHg 69%
    14:00 +29°C° 0.5 mm 1 mps 721 mmHg 71%
    15:00 +29°C° 0.5 mm 1 mps 721 mmHg 73%
    16:00 +29°C° 0.5 mm 1 mps 720 mmHg 75%
    17:00 +28°C° 0.1 mm 1 mps 720 mmHg 81%
    18:00 +26°C° 0.1 mm 1 mps 720 mmHg 88%
    19:00 +25°C° 0.1 mm 1 mps 720 mmHg 94%
    20:00 +24°C° 0 mm 1 mps 721 mmHg 95%
    21:00 +24°C° 0 mm 1 mps 722 mmHg 96%
    22:00 +23°C° 0 mm 1 mps 722 mmHg 97%
    23:00 +23°C° 0 mm 1 mps 722 mmHg 97%

    Day after tomorrow, 29 June, Saturday

    Time Temperature Precipitation Wind Pressure Humidity
    00:00 +23°C° 0 mm 1 mps 722 mmHg 97%
    01:00 +23°C° 0 mm 1 mps 722 mmHg 98%
    02:00 +22°C° 0 mm 1 mps 722 mmHg 97%
    03:00 +22°C° 0 mm 1 mps 721 mmHg 96%
    04:00 +22°C° 0 mm 1 mps 721 mmHg 96%
    05:00 +22°C° 0 mm 1 mps 722 mmHg 95%
    06:00 +23°C° 0 mm 1 mps 722 mmHg 95%
    07:00 +23°C° 0 mm 1 mps 722 mmHg 94%
    08:00 +24°C° 0 mm 1 mps 723 mmHg 89%
    09:00 +25°C° 0 mm 1 mps 723 mmHg 84%
    10:00 +26°C° 0 mm 1 mps 724 mmHg 79%
    11:00 +27°C° 0 mm 1 mps 723 mmHg 75%
    12:00 +28°C° 0 mm 1 mps 722 mmHg 71%
    13:00 +29°C° 0 mm 1 mps 722 mmHg 66%
    14:00 +30°C° 0 mm 1 mps 721 mmHg 65%
    15:00 +30°C° 0 mm 1 mps 721 mmHg 64%
    16:00 +31°C° 0 mm 1 mps 720 mmHg 62%
    17:00 +29°C° 0 mm 1 mps 720 mmHg 70%
    18:00 +27°C° 0 mm 1 mps 720 mmHg 78%
    19:00 +25°C° 0 mm 1 mps 721 mmHg 86%
    20:00 +25°C° 0 mm 1 mps 721 mmHg 89%
    21:00 +24°C° 0 mm 1 mps 722 mmHg 92%
    22:00 +24°C° 0 mm 2 mps 722 mmHg 95%
    23:00 +24°C° 0 mm 2 mps 722 mmHg 95%

    30 June, Sunday

    Time Temperature Precipitation Wind Pressure Humidity
    00:00 +24°C° 0 mm 2 mps 722 mmHg 95%
    01:00 +24°C° 0 mm 2 mps 722 mmHg 95%
    02:00 +23°C° 0 mm 2 mps 721 mmHg 95%
    03:00 +23°C° 0 mm 1 mps 721 mmHg 95%
    04:00 +23°C° 0 mm 1 mps 721 mmHg 96%
    05:00 +23°C° 0 mm 1 mps 722 mmHg 94%
    06:00 +24°C° 0 mm 1 mps 722 mmHg 93%
    07:00 +24°C° 0 mm 1 mps 723 mmHg 92%
    08:00 +25°C° 0 mm 1 mps 723 mmHg 87%
    09:00 +26°C° 0 mm 1 mps 724 mmHg 82%
    10:00 +27°C° 0 mm 1 mps 724 mmHg 77%
    11:00 +28°C° 1 mm 1 mps 724 mmHg 79%
    12:00 +28°C° 1 mm 1 mps 723 mmHg 80%
    13:00 +29°C° 1 mm 1 mps 722 mmHg 81%
    14:00 +28°C° 1.4 mm 1 mps 722 mmHg 84%
    15:00 +28°C° 1.4 mm 1 mps 721 mmHg 87%
    16:00 +27°C° 1.4 mm 1 mps 721 mmHg 91%
    17:00 +26°C° 0.1 mm 1 mps 721 mmHg 92%
    18:00 +25°C° 0.1 mm 1 mps 721 mmHg 94%
    19:00 +24°C° 0.1 mm 1 mps 721 mmHg 96%
    20:00 +24°C° 0 mm 1 mps 721 mmHg 97%
    21:00 +24°C° 0 mm 1 mps 722 mmHg 98%
    22:00 +23°C° 0 mm 1 mps 722 mmHg 99%
    23:00 +23°C° 0 mm 1 mps 722 mmHg 98%

    1 July, Monday

    Time Temperature Precipitation Wind Pressure Humidity
    00:00 +23°C° 0 mm 1 mps 722 mmHg 98%
    01:00 +23°C° 0 mm 1 mps 722 mmHg 98%
    02:00 +23°C° 0 mm 1 mps 722 mmHg 98%
    03:00 +23°C° 0 mm 1 mps 722 mmHg 98%
    04:00 +23°C° 0 mm 1 mps 721 mmHg 98%
    05:00 +23°C° 0 mm 1 mps 722 mmHg 98%
    06:00 +23°C° 0 mm 1 mps 722 mmHg 98%
    07:00 +23°C° 0 mm 1 mps 722 mmHg 97%
    08:00 +25°C° 0 mm 1 mps 723 mmHg 90%
    09:00 +27°C° 0 mm 1 mps 723 mmHg 83%
    10:00 +28°C° 0 mm 1 mps 723 mmHg 75%
    11:00 +29°C° 0.1 mm 1 mps 722 mmHg 71%
    12:00 +30°C° 0.1 mm 1 mps 722 mmHg 67%
    13:00 +31°C° 0.1 mm 1 mps 721 mmHg 63%
    14:00 +31°C° 0.4 mm 1 mps 720 mmHg 66%
    15:00 +31°C° 0.4 mm 1 mps 720 mmHg 68%
    16:00 +31°C° 0.4 mm 1 mps 720 mmHg 70%
    17:00 +29°C° 0.6 mm 1 mps 720 mmHg 79%
    18:00 +27°C° 0.6 mm 2 mps 720 mmHg 87%
    19:00 +25°C° 0.6 mm 2 mps 720 mmHg 96%
    20:00 +24°C° 0.2 mm 2 mps 721 mmHg 96%
    21:00 +24°C° 0.2 mm 2 mps 721 mmHg 97%
    22:00 +24°C° 0.2 mm 2 mps 722 mmHg 98%
    23:00 +23°C° 0.2 mm 2 mps 721 mmHg 98%

    2 July, Tuesday

    Time Temperature Precipitation Wind Pressure Humidity
    00:00 +23°C° 0.2 mm 2 mps 721 mmHg 98%
    01:00 +23°C° 0.2 mm 2 mps 721 mmHg 98%
    02:00 +23°C° 0 mm 2 mps 721 mmHg 97%
    03:00 +23°C° 0 mm 1 mps 721 mmHg 97%
    04:00 +23°C° 0 mm 1 mps 721 mmHg 96%
    05:00 +23°C° 0 mm 1 mps 721 mmHg 96%
    06:00 +23°C° 0 mm 1 mps 721 mmHg 96%
    07:00 +24°C° 0 mm 1 mps 721 mmHg 96%
    08:00 +24°C° 0 mm 1 mps 722 mmHg 95%
    09:00 +24°C° 0 mm 1 mps 722 mmHg 95%
    10:00 +24°C° 0 mm 1 mps 722 mmHg 94%
    11:00 +26°C° 0 mm 1 mps 722 mmHg 88%
    12:00 +27°C° 0 mm 1 mps 721 mmHg 81%
    13:00 +28°C° 0 mm 1 mps 721 mmHg 75%
    14:00 +29°C° 0 mm 2 mps 720 mmHg 73%
    15:00 +29°C° 0 mm 2 mps 719 mmHg 71%
    16:00 +30°C° 0 mm 2 mps 719 mmHg 69%
    17:00 +28°C° 0.8 mm 2 mps 719 mmHg 77%
    18:00 +27°C° 0.8 mm 2 mps 720 mmHg 85%
    19:00 +25°C° 0.8 mm 2 mps 720 mmHg 93%
    20:00 +25°C° 0.4 mm 2 mps 720 mmHg 94%
    21:00 +24°C° 0.4 mm 2 mps 721 mmHg 96%
    22:00 +24°C° 0.4 mm 2 mps 722 mmHg 97%
    23:00 +23°C° 0 mm 1 mps 721 mmHg 97%
    Show more